Wind_Speed
30 30 31 31 31 32 32 30 28 28 27 26 26 26 24 23 22 21 19 18 17 17 16 16 15 15 14 14 15 14 14 13 12 12 11 10 9 8 7 7 7 6 5 5 5 5 5 5 5
30 30 30 31 32 31 31 30 29 29 29 28 28 27 26 25 24 22 21 20 19 19 18 18 17 17 16 16 16 16 16 15 15 14 13 12 11 11 10 9 8 8 7 7 7 7 6 7 7
29 29 30 31 32 31 30 30 29 29 30 30 30 29 28 27 25 24 23 22 21 20 20 19 19 19 18 17 17 17 17 17 16 16 15 14 13 12 11 11 10 10 9 9 9 9 8 8 8
28 29 30 31 31 31 31 30 30 31 31 31 31 31 30 29 27 26 24 23 22 21 21 21 21 20 20 19 18 18 18 18 18 17 16 15 14 13 13 12 12 11 11 11 11 10 10 10 10
28 30 31 32 30 30 31 31 31 31 32 32 32 32 31 30 29 28 26 25 24 23 22 22 22 22 22 21 20 20 20 20 20 19 18 17 16 15 14 14 13 13 13 12 12 12 12 12 12
27 29 31 30 30 30 32 32 32 32 32 33 33 33 33 32 31 30 28 27 26 25 24 24 24 24 23 23 23 22 22 21 21 21 21 20 19 17 17 16 16 15 15 15 14 14 13 13 14
27 28 28 28 30 29 30 31 32 32 33 34 34 34 33 32 32 31 30 29 28 27 26 25 26 26 25 25 25 24 24 24 24 23 23 22 21 20 19 18 18 18 17 17 16 16 16 15 15
27 28 28 28 28 28 28 30 31 32 33 34 35 35 34 32 32 32 31 31 30 29 28 27 27 27 28 28 27 27 26 26 26 26 25 25 24 23 22 21 21 20 20 19 19 18 18 17 17
28 29 27 28 28 28 28 29 30 31 33 33 34 34 34 34 33 33 32 32 31 31 30 29 29 29 29 29 29 29 29 28 27 27 27 27 27 26 25 24 23 23 22 22 21 20 20 20 20
28 28 27 28 30 29 29 30 30 31 32 33 33 34 33 34 35 34 33 32 32 32 31 30 30 30 30 30 31 30 30 30 29 28 28 28 28 28 28 27 26 25 25 24 24 22 22 22 21
27 28 28 29 30 30 30 30 31 32 32 32 33 34 33 34 35 35 35 33 34 33 32 31 31 31 31 31 32 32 32 31 31 30 29 29 29 30 30 30 29 28 27 27 26 25 25 24 24
25 26 27 29 30 32 32 31 31 33 33 33 33 34 33 34 35 36 36 35 35 34 34 34 32 32 32 32 33 33 33 33 32 31 31 31 30 30 31 31 31 31 30 30 29 28 28 27 27
25 25 26 28 30 32 33 33 34 34 34 34 35 35 34 35 36 38 38 37 37 36 35 35 34 33 33 34 34 34 33 33 32 32 32 33 32 31 31 31 32 31 31 31 31 31 30 30 29
25 27 27 28 30 32 33 33 34 35 35 35 37 37 36 36 37 38 39 39 38 37 37 37 36 36 35 34 34 34 34 34 33 34 34 34 33 32 32 31 31 31 32 32 32 32 32 32 32
24 26 27 28 30 31 33 34 35 35 36 36 37 38 38 38 38 38 39 39 39 39 38 38 37 37 36 36 36 36 36 36 35 35 35 35 35 34 32 33 33 32 32 32 32 33 34 34 34
23 24 26 27 28 30 33 34 34 36 37 38 38 39 40 40 39 39 40 40 40 40 39 38 38 38 37 37 37 37 38 38 37 36 36 36 36 35 35 35 35 34 34 34 34 33 34 34 35
23 24 25 26 27 29 32 33 33 35 37 38 39 40 40 40 41 40 40 41 40 41 41 40 39 39 39 38 37 38 39 40 39 38 38 38 39 37 37 36 36 37 36 36 36 35 35 35 36
23 24 25 27 28 30 31 32 32 35 36 38 39 39 40 40 41 42 42 42 42 42 42 42 41 40 40 40 39 39 40 40 40 39 39 39 39 39 38 38 38 38 37 37 37 36 37 37 37
24 25 26 28 29 31 32 32 32 35 37 38 39 40 41 41 43 43 44 44 43 43 43 44 44 42 41 40 40 41 42 42 41 41 40 41 41 40 38 39 39 39 38 38 38 38 38 38 39
24 25 27 28 30 31 32 33 32 34 37 38 40 41 42 43 44 45 45 45 44 44 44 44 44 44 44 43 43 43 44 44 43 43 42 42 41 41 41 41 41 41 41 41 40 40 40 41 41
23 25 27 29 30 30 31 31 32 33 36 37 38 39 41 42 44 45 45 46 46 45 45 44 44 43 44 44 45 46 46 46 46 46 45 44 43 42 41 42 42 42 43 43 43 43 43 42 42
20 22 24 25 27 28 28 29 27 30 33 35 37 38 40 42 43 44 46 46 47 47 46 45 45 45 45 45 44 45 46 46 47 47 47 46 45 44 44 43 43 43 43 43 43 43 43 43 42
19 19 21 22 24 25 25 27 26 26 28 31 34 36 38 40 41 42 44 45 46 46 47 47 46 46 46 46 46 45 46 47 48 48 48 48 47 46 46 45 44 43 43 44 44 43 43 43 42
17 18 19 20 21 22 21 24 24 25 26 28 29 31 34 36 38 40 42 43 44 45 46 47 47 48 47 47 46 46 47 48 48 46 46 47 47 46 46 47 46 44 44 43 44 43 43 43 43
17 17 17 18 18 19 20 23 23 23 25 27 29 29 30 31 33 35 37 39 41 42 44 46 48 48 47 47 47 47 47 48 48 47 47 46 46 45 45 46 45 45 44 44 44 43 42 43 43
16 16 17 18 18 19 19 20 22 23 23 26 27 28 29 30 31 33 34 37 39 40 43 45 46 46 46 46 46 47 48 47 47 48 48 48 47 47 45 44 44 43 44 44 44 44 44 43 43
16 16 17 19 20 19 19 19 20 22 23 25 25 26 28 30 30 32 34 35 37 38 39 41 43 45 47 47 48 47 48 49 49 49 50 50 48 47 46 45 44 44 43 43 43 44 44 44 44
18 18 17 18 20 21 22 20 20 21 23 23 25 26 28 29 29 30 32 33 34 36 37 38 39 42 44 45 46 46 47 48 49 49 49 50 50 49 47 46 45 44 45 44 43 44 44 44 45
18 18 19 20 20 22 23 21 20 21 22 23 24 26 28 29 29 31 32 33 33 35 36 36 37 39 41 42 43 45 46 46 46 46 47 47 48 49 46 44 44 43 44 45 46 44 44 45 45
18 18 19 21 21 22 24 23 22 22 22 22 23 24 27 29 30 31 32 32 32 34 34 35 36 37 39 40 41 42 44 44 44 44 45 44 44 46 46 46 45 44 43 43 44 44 44 43 43
Wind_Direction
251 248 245 242 240 241 241 240 237 235 234 234 235 235 235 235 235 238 239 240 240 240 239 239 240 239 239 239 239 239 238 238 237 235 234 233 233 232 231 234 234 235 242 250 256 262 268 279 291
250 247 244 241 239 240 241 240 237 235 235 235 234 234 234 234 235 237 238 239 240 240 240 240 242 242 242 242 241 241 241 240 239 237 237 236 236 235 233 235 237 237 242 249 255 260 268 276 281
249 246 243 241 239 239 240 239 237 235 233 233 234 234 235 235 234 236 237 237 239 241 241 240 241 243 243 244 243 241 242 242 241 239 238 237 237 238 236 238 240 241 243 248 254 259 264 272 277
247 242 242 242 240 239 239 238 237 235 234 233 234 234 235 235 234 236 236 236 238 240 242 241 241 242 243 244 244 243 243 243 243 242 239 239 238 239 240 240 241 244 247 251 256 260 264 269 274
245 242 242 242 240 237 237 237 238 236 235 234 234 234 235 235 235 235 236 236 237 238 240 242 241 242 243 243 244 245 245 244 244 243 242 241 240 241 243 244 245 247 249 255 260 263 265 270 274
245 244 244 243 239 237 237 237 238 237 236 235 234 234 235 235 234 235 235 236 237 239 241 243 243 243 243 244 244 245 245 245 246 245 245 243 243 243 244 246 248 250 251 255 261 264 266 271 276
244 242 244 243 239 238 239 238 238 237 236 235 235 234 234 234 234 234 234 236 239 240 242 244 245 243 244 245 245 245 245 245 246 245 245 244 243 245 246 247 249 251 253 254 258 264 267 271 276
245 244 244 245 240 241 241 241 241 239 236 235 235 234 233 232 233 233 234 237 239 241 242 244 245 245 244 244 245 245 246 246 246 246 245 245 244 246 246 247 249 252 255 256 258 262 266 270 274
247 246 245 246 242 243 242 242 243 241 238 237 236 235 233 232 233 233 235 237 239 241 242 244 245 245 245 245 246 245 245 247 247 247 248 247 247 247 248 249 250 252 255 256 258 261 265 269 271
249 248 248 247 243 243 243 242 242 242 240 239 238 237 235 233 233 233 234 236 238 240 242 244 245 246 246 246 246 246 245 247 248 249 250 250 250 250 250 251 251 253 255 256 259 261 264 267 271
251 253 250 248 246 246 245 243 243 243 242 240 239 239 237 235 234 233 236 237 238 239 242 244 245 246 247 247 246 245 245 246 247 249 251 251 251 252 252 253 253 254 255 257 259 262 263 266 269
254 252 251 250 247 245 245 245 245 243 242 242 241 240 239 238 236 235 237 237 238 239 240 242 243 246 247 248 246 244 245 246 247 249 251 251 252 253 253 253 253 254 255 258 260 261 263 265 268
254 252 252 253 251 250 249 248 248 245 244 243 242 241 240 240 238 237 237 238 238 240 241 242 243 245 247 248 248 245 245 246 248 250 250 251 251 252 254 254 255 256 256 257 259 261 264 266 268
257 255 254 256 256 253 251 249 249 246 245 242 241 241 241 241 240 239 238 239 239 241 241 242 243 245 247 248 248 247 245 246 248 250 251 250 251 252 253 255 256 257 258 259 260 262 264 266 269
259 257 255 257 256 255 253 251 249 247 245 243 241 240 241 241 240 240 239 240 240 241 242 242 243 246 247 248 249 248 246 247 248 250 250 250 251 254 254 255 256 257 258 260 261 263 264 266 269
261 260 258 258 259 257 256 252 250 248 246 244 241 240 241 242 241 241 241 242 241 241 242 242 242 245 247 248 248 249 248 247 248 251 252 251 252 255 256 256 256 257 259 260 263 264 265 267 270
261 262 261 260 260 259 258 256 251 249 248 245 242 241 242 243 243 242 242 243 242 242 242 243 245 246 247 249 250 250 250 248 249 251 252 253 254 256 256 256 257 258 260 261 263 264 266 268 269
264 263 263 262 262 261 260 258 253 250 249 247 245 243 242 244 243 243 243 243 244 243 243 243 245 247 248 249 250 250 249 249 250 251 253 254 255 256 257 256 257 260 261 262 263 265 267 269 270
269 267 265 264 264 264 263 260 255 252 250 249 247 246 245 245 244 244 243 244 244 243 243 244 245 246 248 250 251 251 250 250 251 251 253 255 256 257 256 256 258 258 260 263 264 266 267 269 272
274 273 270 267 267 268 266 262 259 255 252 250 248 247 248 247 245 244 243 243 244 243 244 246 246 248 249 251 253 252 250 250 250 251 253 256 257 258 258 259 259 259 260 263 265 267 268 270 272
277 277 275 272 271 271 270 265 260 258 254 252 251 249 248 247 246 245 243 244 243 243 244 245 247 249 250 250 252 252 250 249 249 251 253 255 257 258 259 259 260 262 262 263 265 267 269 270 271
279 279 279 276 273 273 272 269 262 261 256 254 253 251 250 249 247 245 244 243 243 243 244 246 248 249 251 251 252 252 251 250 250 251 253 255 256 258 260 261 262 263 265 266 266 267 269 270 270
284 282 280 280 278 275 274 273 268 265 261 257 255 253 252 250 247 246 245 244 244 244 246 247 248 250 251 252 252 252 251 250 250 251 252 254 257 258 260 260 261 262 264 266 266 267 268 269 270
290 286 284 283 281 278 275 277 274 270 265 261 256 255 254 250 247 247 247 246 245 245 246 247 249 250 252 253 252 251 251 250 251 253 254 255 255 257 259 259 259 261 264 265 266 266 267 268 269
295 292 289 286 283 281 282 281 281 275 271 265 260 258 253 250 248 249 248 247 246 246 246 248 249 250 251 252 251 252 252 252 253 255 256 255 254 256 259 260 261 262 263 264 267 267 267 267 269
297 294 292 290 289 290 288 287 284 282 274 267 264 261 256 254 253 252 250 250 249 249 249 249 248 248 249 251 252 253 253 254 254 255 255 254 254 256 259 261 263 264 265 266 266 266 267 268 269
291 291 291 290 292 294 294 293 288 284 275 270 266 263 260 257 256 257 254 253 252 251 251 249 249 249 250 251 253 254 255 253 254 256 256 256 257 258 259 262 264 265 266 266 266 266 266 267 268
289 289 289 286 288 292 294 295 292 288 282 274 271 268 263 261 261 259 256 255 254 252 250 250 251 251 252 253 255 255 255 257 257 256 257 257 258 259 260 263 265 266 266 266 266 266 266 267 269
290 286 285 284 285 288 290 293 296 289 285 280 274 268 265 262 262 261 260 258 255 252 251 252 254 255 254 255 256 257 256 256 257 258 258 259 259 259 260 264 265 266 267 266 266 265 265 267 268
290 286 285 284 283 287 288 287 291 292 287 283 277 270 267 266 265 264 262 259 256 254 254 254 255 256 256 257 257 256 256 258 260 261 260 262 262 262 262 263 265 266 266 266 266 263 264 265 266
Height
5805 5806 5808 5810 5812 5813 5816 5821 5825 5828 5830 5833 5835 5838 5840 5843 5846 5849 5849 5849 5850 5851 5852 5853 5854 5854 5855 5856 5856 5857 5857 5858 5859 5859 5859 5859 5860 5860 5860 5860 5860 5860 5860 5860 5859 5859 5858 5858 5857
5797 5799 5801 5802 5804 5807 5811 5815 5819 5822 5825 5827 5830 5832 5835 5837 5840 5842 5843 5845 5846 5847 5848 5850 5851 5852 5852 5853 5854 5854 5855 5855 5856 5857 5857 5857 5857 5858 5858 5858 5858 5858 5858 5858 5858 5857 5857 5856 5856
5790 5792 5794 5795 5797 5801 5805 5809 5813 5816 5818 5821 5824 5827 5829 5833 5835 5837 5839 5841 5842 5844 5845 5846 5847 5848 5849 5850 5850 5851 5852 5853 5853 5854 5854 5855 5855 5855 5856 5856 5856 5856 5856 5856 5856 5855 5855 5854 5854
5783 5785 5787 5789 5791 5796 5799 5803 5806 5809 5812 5815 5818 5821 5824 5827 5830 5832 5834 5836 5838 5840 5841 5842 5843 5844 5845 5846 5847 5848 5848 5849 5850 5851 5851 5852 5853 5853 5853 5854 5854 5854 5854 5854 5854 5853 5853 5852 5852
5777 5778 5780 5782 5786 5790 5793 5796 5799 5803 5806 5809 5812 5815 5818 5821 5824 5826 5829 5831 5833 5835 5836 5838 5839 5840 5842 5843 5843 5844 5844 5845 5846 5847 5848 5849 5850 5850 5850 5851 5851 5851 5852 5851 5851 5851 5850 5850 5849
5770 5771 5774 5776 5780 5784 5787 5789 5792 5796 5799 5803 5805 5808 5811 5815 5818 5821 5823 5826 5828 5830 5831 5833 5834 5835 5837 5838 5839 5840 5840 5841 5842 5843 5844 5846 5846 5847 5847 5847 5848 5848 5849 5849 5848 5848 5847 5847 5846
5764 5765 5768 5771 5774 5778 5781 5783 5786 5789 5792 5795 5798 5802 5805 5809 5812 5815 5817 5820 5822 5824 5826 5828 5829 5830 5832 5833 5834 5835 5836 5837 5838 5839 5840 5841 5842 5843 5843 5844 5844 5844 5845 5845 5845 5844 5844 5843 5843
5757 5760 5762 5765 5768 5772 5775 5776 5779 5782 5785 5788 5792 5795 5799 5803 5806 5809 5812 5814 5816 5818 5820 5822 5823 5825 5826 5827 5828 5830 5831 5832 5833 5834 5835 5837 5838 5838 5839 5839 5840 5840 5841 5841 5841 5841 5840 5840 5839
5750 5754 5756 5759 5762 5766 5768 5770 5773 5775 5778 5781 5784 5788 5792 5796 5799 5802 5805 5808 5810 5812 5814 5816 5817 5818 5820 5821 5822 5823 5825 5826 5827 5829 5830 5831 5832 5833 5834 5835 5835 5836 5836 5836 5836 5836 5836 5836 5835
5744 5747 5751 5753 5755 5758 5761 5763 5766 5768 5771 5774 5777 5781 5784 5788 5792 5795 5798 5801 5804 5806 5808 5809 5811 5812 5814 5815 5816 5817 5818 5820 5822 5823 5825 5826 5827 5828 5829 5830 5830 5831 5831 5831 5831 5831 5831 5831 5831
5738 5741 5744 5745 5748 5751 5754 5757 5759 5761 5764 5768 5771 5773 5777 5781 5784 5788 5791 5794 5797 5799 5802 5803 5804 5806 5807 5808 5809 5810 5812 5814 5815 5817 5819 5820 5821 5822 5823 5824 5824 5825 5825 5826 5826 5826 5826 5826 5826
5733 5735 5736 5738 5740 5743 5746 5749 5752 5754 5758 5760 5763 5766 5770 5773 5777 5780 5784 5787 5790 5792 5795 5796 5798 5799 5800 5801 5802 5803 5805 5807 5809 5810 5812 5813 5814 5815 5816 5817 5818 5819 5819 5820 5820 5820 5820 5820 5820
5727 5729 5730 5731 5733 5735 5737 5741 5744 5747 5750 5752 5755 5759 5762 5765 5769 5772 5775 5779 5782 5785 5787 5789 5790 5792 5793 5794 5795 5796 5798 5800 5802 5804 5805 5806 5807 5809 5809 5810 5811 5812 5813 5813 5814 5814 5814 5814 5814
5722 5723 5724 5725 5726 5728 5730 5733 5735 5739 5740 5743 5747 5750 5753 5757 5760 5763 5767 5770 5774 5777 5779 5781 5783 5784 5785 5787 5788 5789 5791 5793 5795 5797 5798 5799 5801 5802 5802 5803 5804 5805 5806 5806 5807 5807 5807 5807 5807
5716 5717 5718 5719 5719 5720 5722 5725 5728 5729 5731 5734 5737 5741 5744 5748 5751 5755 5759 5762 5765 5768 5771 5773 5775 5777 5778 5780 5781 5782 5784 5786 5788 5789 5791 5792 5793 5794 5795 5796 5797 5798 5798 5799 5799 5800 5800 5800 5799
5710 5711 5712 5712 5712 5713 5715 5717 5720 5720 5722 5725 5728 5732 5736 5739 5742 5746 5750 5753 5757 5759 5762 5765 5767 5769 5770 5772 5773 5774 5776 5778 5780 5782 5783 5784 5786 5787 5788 5789 5789 5790 5791 5791 5792 5792 5792 5792 5791
5704 5705 5705 5706 5705 5705 5706 5709 5712 5711 5713 5716 5720 5723 5727 5730 5734 5737 5741 5744 5747 5750 5753 5756 5758 5760 5762 5763 5765 5766 5768 5770 5771 5773 5775 5777 5778 5779 5780 5781 5782 5782 5783 5783 5784 5784 5784 5783 5782
5699 5699 5699 5699 5698 5698 5698 5700 5702 5703 5704 5707 5711 5714 5718 5721 5725 5728 5731 5734 5738 5741 5744 5746 5749 5751 5753 5755 5756 5758 5759 5761 5763 5765 5767 5768 5769 5770 5772 5773 5773 5774 5774 5775 5775 5775 5775 5774 5773
5693 5693 5693 5692 5691 5690 5690 5691 5693 5693 5695 5698 5701 5704 5708 5711 5715 5717 5720 5724 5727 5731 5734 5737 5739 5742 5744 5746 5748 5749 5751 5753 5754 5756 5758 5759 5761 5762 5763 5764 5764 5765 5766 5766 5766 5766 5766 5765 5764
5687 5686 5686 5685 5683 5682 5683 5684 5685 5685 5686 5689 5691 5694 5697 5700 5703 5706 5709 5713 5717 5721 5724 5727 5730 5732 5735 5737 5739 5740 5742 5744 5745 5747 5749 5750 5751 5753 5754 5755 5755 5756 5757 5757 5757 5757 5756 5756 5754
5681 5680 5679 5678 5676 5675 5674 5676 5677 5677 5678 5680 5681 5683 5685 5687 5690 5694 5697 5701 5706 5710 5714 5717 5720 5722 5724 5727 5728 5730 5732 5734 5736 5738 5739 5740 5741 5743 5744 5745 5746 5747 5747 5748 5748 5747 5747 5746 5745
5675 5674 5672 5670 5669 5668 5668 5667 5671 5670 5670 5670 5671 5672 5674 5675 5678 5681 5685 5689 5694 5698 5702 5706 5709 5712 5714 5716 5718 5720 5722 5724 5726 5728 5729 5730 5732 5733 5735 5736 5736 5737 5737 5737 5737 5737 5737 5736 5735
5670 5668 5667 5665 5663 5662 5662 5660 5662 5662 5662 5662 5662 5662 5662 5664 5666 5669 5672 5677 5682 5687 5691 5695 5698 5700 5703 5705 5707 5709 5711 5714 5715 5717 5718 5720 5721 5723 5724 5726 5726 5727 5727 5727 5727 5726 5726 5726 5725
5665 5664 5662 5660 5658 5657 5658 5655 5655 5655 5654 5653 5653 5652 5652 5653 5656 5658 5661 5665 5669 5674 5678 5683 5686 5689 5691 5693 5695 5697 5700 5702 5704 5706 5707 5709 5711 5712 5713 5714 5715 5716 5716 5717 5716 5716 5716 5715 5715
5661 5660 5657 5655 5653 5653 5653 5650 5650 5649 5648 5646 5646 5646 5645 5645 5646 5649 5651 5655 5659 5662 5666 5671 5674 5677 5679 5682 5683 5685 5688 5690 5692 5694 5696 5698 5700 5701 5702 5703 5704 5705 5705 5705 5705 5705 5705 5705 5705
5657 5656 5654 5652 5649 5648 5647 5645 5646 5644 5642 5640 5639 5639 5638 5639 5639 5641 5643 5645 5649 5652 5655 5658 5662 5665 5667 5669 5671 5674 5675 5677 5679 5682 5684 5686 5688 5689 5691 5691 5692 5693 5694 5694 5694 5694 5694 5694 5694
5653 5652 5650 5647 5644 5642 5641 5641 5640 5638 5636 5635 5634 5633 5632 5632 5633 5634 5635 5637 5639 5641 5644 5646 5650 5653 5655 5657 5660 5661 5663 5665 5667 5669 5671 5673 5675 5677 5678 5679 5680 5682 5682 5682 5682 5683 5683 5683 5683
5650 5647 5645 5642 5639 5637 5636 5635 5635 5632 5631 5630 5628 5627 5626 5626 5626 5627 5627 5628 5629 5630 5633 5636 5638 5640 5643 5645 5647 5650 5651 5653 5655 5657 5658 5660 5662 5664 5666 5667 5668 5669 5671 5671 5671 5671 5671 5671 5672
5645 5643 5640 5638 5636 5633 5630 5632 5630 5627 5625 5624 5622 5621 5620 5619 5619 5619 5620 5620 5620 5621 5623 5625 5628 5630 5632 5634 5636 5638 5639 5641 5642 5644 5646 5647 5649 5651 5653 5655 5656 5657 5658 5659 5659 5660 5660 5660 5660
5639 5638 5636 5634 5632 5629 5626 5629 5625 5622 5620 5618 5616 5615 5614 5613 5612 5612 5611 5611 5612 5612 5613 5616 5618 5619 5621 5623 5625 5627 5628 5630 5631 5632 5633 5635 5636 5638 5640 5642 5643 5645 5646 5646 5647 5648 5648 5648 5649